User: anonymous   Login
Location: Fort Wayne
(41.1310°N, 85.1290°W)
Time: 08:56:20
(UTC-04:00)
Language:

BREEZE-M DEB (TANK) - Orbit

View from above orbital plane
View from above orbital plane
View from above satellite
View from above satellite

Ground track
Ground track

The orbit data is extracted from the following two-line orbital elements,

1 27821U 03024B   15088.70502500  .00012910  00000-0  16765-2 0  9990
2 27821 049.5890 276.2203 4987077 137.0087 342.6030 05.65975397234099
Epoch (UTC): 29 March 2015 16:55:14
Eccentricity: 0.4987077
inclination: 49.5890°
perigee height: 289 km
apogee height: 13555 km
right ascension of ascending node: 276.2203°
argument of perigee: 137.0087°
revolutions per day: 5.65975397
mean anomaly at epoch: 342.6030°
orbit number at epoch: 23409

The dashed part of the orbit path shows where the satellite is in the earth's shadow,  

DLR